KLM625 EHAM-OMDB

Flight info

Callsign KLM625
Flight time N/A
Altitude 35000
Route ARNEM L620 HMM DCT OMELO DCT MAVOR DCT KUFIK DCT TEKVI DCT FOGRE DCT TUVNU/N0483F370 DCT SOKRU DCT ARGES DCT ARTAT UP975 EZS UG8 OTKEP UM688 RATVO M688 SIDAD P975 SESRU M677 VUTEB
Aircraft B77W/H-SDE1E2E3FGHIJ2J3J4J5M1RWXY/LB1D1

Departure

Time 2026-04-29 13:13
Airport Amsterdam Airport Schiphol (EHAM)

Arrival

Time N/A
Airport Dubai International Airport (OMDB)
Time Latitude Longitude Altitude Speed Heading
2026-04-29 11:55 52.31161 4.76793 15 ft 0 kts 301°
2026-04-29 12:51 52.31154 4.76811 15 ft 2 kts 301°
2026-04-29 12:51 52.31146 4.76832 15 ft 2 kts 302°
2026-04-29 12:51 52.31137 4.76851 15 ft 2 kts 319°
2026-04-29 12:51 52.31125 4.76864 16 ft 2 kts 335°
2026-04-29 12:52 52.31110 4.76872 16 ft 2 kts 351°
2026-04-29 12:52 52.31096 4.76873 16 ft 2 kts
2026-04-29 12:52 52.31081 4.76868 16 ft 2 kts 22°
2026-04-29 12:52 52.31071 4.76859 15 ft 1 kts 33°
2026-04-29 12:53 52.31070 4.76858 15 ft 0 kts 34°
2026-04-29 12:57 52.31089 4.76878 16 ft 9 kts 34°
2026-04-29 12:57 52.31152 4.76943 15 ft 10 kts 33°
2026-04-29 12:57 52.31215 4.77011 14 ft 10 kts 33°
2026-04-29 12:57 52.31277 4.77078 13 ft 10 kts 34°
2026-04-29 12:58 52.31328 4.77135 14 ft 8 kts 34°
2026-04-29 12:58 52.31386 4.77182 13 ft 12 kts
2026-04-29 12:58 52.31489 4.77198 9 ft 12 kts
2026-04-29 12:58 52.31543 4.77204 7 ft 4 kts
2026-04-29 12:59 52.31562 4.77175 7 ft 7 kts 293°
2026-04-29 12:59 52.31567 4.77019 6 ft 16 kts 268°
2026-04-29 12:59 52.31562 4.76851 4 ft 13 kts 266°
2026-04-29 12:59 52.31556 4.76696 4 ft 15 kts 266°
2026-04-29 13:00 52.31548 4.76464 3 ft 24 kts 265°
2026-04-29 13:00 52.31537 4.76135 4 ft 31 kts 266°
2026-04-29 13:00 52.31525 4.75791 5 ft 28 kts 267°
2026-04-29 13:00 52.31515 4.75490 8 ft 24 kts 267°
2026-04-29 13:01 52.31505 4.75203 5 ft 25 kts 266°
2026-04-29 13:01 52.31495 4.74905 2 ft 25 kts 266°
2026-04-29 13:01 52.31486 4.74626 0 ft 23 kts 267°
2026-04-29 13:01 52.31478 4.74403 0 ft 16 kts 267°
2026-04-29 13:02 52.31473 4.74243 1 ft 8 kts 267°
2026-04-29 13:02 52.31475 4.74178 2 ft 3 kts 312°
2026-04-29 13:02 52.31514 4.74154 2 ft 9 kts 352°
2026-04-29 13:02 52.31611 4.74157 0 ft 16 kts
2026-04-29 13:03 52.31733 4.74169 0 ft 17 kts
2026-04-29 13:03 52.31851 4.74181 0 ft 18 kts
2026-04-29 13:03 52.31977 4.74192 -1 ft 13 kts
2026-04-29 13:03 52.32014 4.74186 -1 ft 3 kts 324°
2026-04-29 13:04 52.32034 4.74094 0 ft 13 kts 277°
2026-04-29 13:04 52.32042 4.73898 0 ft 21 kts 274°
2026-04-29 13:04 52.32051 4.73671 2 ft 18 kts 274°
2026-04-29 13:04 52.32059 4.73463 2 ft 17 kts 274°
2026-04-29 13:05 52.32125 4.73305 1 ft 20 kts 319°
2026-04-29 13:05 52.32257 4.73116 0 ft 29 kts 320°
2026-04-29 13:05 52.32414 4.72893 0 ft 30 kts 319°
2026-04-29 13:05 52.32568 4.72677 0 ft 28 kts 320°
2026-04-29 13:06 52.32706 4.72466 2 ft 25 kts 312°
2026-04-29 13:06 52.32832 4.72234 2 ft 27 kts 312°
2026-04-29 13:06 52.32956 4.72004 0 ft 27 kts 311°
2026-04-29 13:06 52.33081 4.71773 -1 ft 25 kts 311°
2026-04-29 13:07 52.33149 4.71587 -1 ft 15 kts 274°
2026-04-29 13:07 52.33095 4.71439 0 ft 15 kts 224°
2026-04-29 13:07 52.33018 4.71326 0 ft 14 kts 221°
2026-04-29 13:07 52.32941 4.71214 0 ft 14 kts 221°
2026-04-29 13:08 52.32916 4.71179 -1 ft 0 kts 222°
2026-04-29 13:08 52.32905 4.71161 -1 ft 8 kts 223°
2026-04-29 13:09 52.32866 4.71052 0 ft 11 kts 263°
2026-04-29 13:09 52.32870 4.70936 -1 ft 4 kts 276°
2026-04-29 13:09 52.32887 4.70904 -1 ft 6 kts 341°
2026-04-29 13:09 52.32925 4.70896 -1 ft 0 kts 359°
2026-04-29 13:11 52.32952 4.70895 -1 ft 21 kts 360°
2026-04-29 13:12 52.33297 4.70930 0 ft 74 kts
2026-04-29 13:12 52.34004 4.70989 0 ft 126 kts
2026-04-29 13:12 52.35009 4.71062 100 ft 158 kts
2026-04-29 13:12 52.36175 4.71136 387 ft 171 kts
2026-04-29 13:13 52.37375 4.71262 949 ft 178 kts 11°
2026-04-29 13:13 52.38676 4.71438 1347 ft 197 kts 11°
2026-04-29 13:13 52.40095 4.71586 1789 ft 215 kts 10°
2026-04-29 13:13 52.41639 4.71798 2249 ft 228 kts 18°
2026-04-29 13:14 52.43093 4.72750 2889 ft 227 kts 33°
2026-04-29 13:14 52.44465 4.73981 3695 ft 226 kts 34°
2026-04-29 13:14 52.45826 4.75230 4383 ft 229 kts 34°
2026-04-29 13:14 52.47059 4.76887 4988 ft 231 kts 56°
2026-04-29 13:15 52.47726 4.79305 5488 ft 241 kts 82°
2026-04-29 13:15 52.47608 4.82038 6196 ft 248 kts 107°
2026-04-29 13:15 52.46703 4.84493 6960 ft 256 kts 126°
2026-04-29 13:15 52.45556 4.86690 7682 ft 260 kts 127°
2026-04-29 13:16 52.44347 4.88959 8337 ft 266 kts 127°
2026-04-29 13:16 52.43142 4.91217 9065 ft 269 kts 127°
2026-04-29 13:16 52.41904 4.93533 9716 ft 273 kts 127°
2026-04-29 13:16 52.40643 4.95890 10350 ft 277 kts 127°
2026-04-29 13:17 52.39349 4.98306 10840 ft 287 kts 127°
2026-04-29 13:17 52.37989 5.00847 11127 ft 305 kts 127°
2026-04-29 13:17 52.36566 5.03499 11392 ft 321 kts 128°
2026-04-29 13:17 52.35056 5.06304 11716 ft 336 kts 128°
2026-04-29 13:18 52.33608 5.09384 11971 ft 348 kts 117°
2026-04-29 13:18 52.32567 5.12972 12153 ft 361 kts 109°
2026-04-29 13:18 52.31639 5.16880 12632 ft 367 kts 108°
2026-04-29 13:18 52.30730 5.20740 13189 ft 370 kts 108°
2026-04-29 13:19 52.29795 5.24696 13362 ft 385 kts 108°
2026-04-29 13:19 52.28783 5.28956 13351 ft 403 kts 108°
2026-04-29 13:19 52.27771 5.33197 13312 ft 410 kts 108°
2026-04-29 13:19 52.26711 5.37627 13339 ft 416 kts 108°
2026-04-29 13:20 52.25691 5.41867 13325 ft 386 kts 108°
2026-04-29 13:20 52.24756 5.45736 13345 ft 353 kts 108°
2026-04-29 13:20 52.23896 5.49299 13333 ft 332 kts 108°
2026-04-29 13:20 52.23033 5.52892 13337 ft 344 kts 108°
2026-04-29 13:21 52.22146 5.56579 13380 ft 356 kts 108°
2026-04-29 13:21 52.21208 5.60464 13581 ft 371 kts 108°
2026-04-29 13:21 52.20257 5.64386 14110 ft 377 kts 108°
2026-04-29 13:21 52.19282 5.68395 14749 ft 381 kts 109°
2026-04-29 13:22 52.18301 5.72427 15376 ft 385 kts 109°
2026-04-29 13:22 52.17319 5.76452 16043 ft 389 kts 109°
2026-04-29 13:22 52.16312 5.80577 16681 ft 393 kts 108°
2026-04-29 13:22 52.15289 5.84755 17286 ft 397 kts 108°
2026-04-29 13:23 52.14272 5.88902 17881 ft 402 kts 108°
2026-04-29 13:23 52.13215 5.93204 18487 ft 406 kts 108°
2026-04-29 13:23 52.12167 5.97461 19159 ft 409 kts 108°
2026-04-29 13:23 52.11111 6.01740 19826 ft 411 kts 108°
2026-04-29 13:24 52.10075 6.06046 20498 ft 411 kts 105°
2026-04-29 13:24 52.09321 6.10534 21073 ft 412 kts 98°
2026-04-29 13:24 52.08829 6.15155 21659 ft 414 kts 96°
2026-04-29 13:24 52.08364 6.19758 22270 ft 415 kts 96°
2026-04-29 13:25 52.07890 6.24403 22889 ft 416 kts 96°
2026-04-29 13:25 52.06927 6.33704 24011 ft 420 kts 96°
2026-04-29 13:25 52.06438 6.38377 24511 ft 422 kts 96°
2026-04-29 13:26 52.05939 6.43114 25005 ft 425 kts 96°
2026-04-29 13:26 52.05445 6.47776 25477 ft 427 kts 96°
2026-04-29 13:26 52.04936 6.52559 25921 ft 430 kts 96°
2026-04-29 13:26 52.04425 6.57340 26386 ft 432 kts 95°
2026-04-29 13:27 52.03911 6.62127 26879 ft 434 kts 95°
2026-04-29 13:27 52.03397 6.66887 27354 ft 436 kts 96°
2026-04-29 13:27 52.02868 6.71774 27827 ft 438 kts 96°
2026-04-29 13:27 52.02392 6.76152 28224 ft 440 kts 96°
2026-04-29 13:28 52.01077 6.85211 29031 ft 447 kts 101°
2026-04-29 13:28 52.00271 6.90165 29496 ft 449 kts 100°
2026-04-29 13:28 51.99447 6.95256 30020 ft 450 kts 100°
2026-04-29 13:29 51.98661 7.00124 30650 ft 447 kts 100°
2026-04-29 13:29 51.97874 7.05008 31400 ft 442 kts 99°
2026-04-29 13:29 51.97110 7.09719 32096 ft 437 kts 99°
2026-04-29 13:29 51.96292 7.14513 32618 ft 437 kts 101°
2026-04-29 13:30 51.95416 7.19201 33070 ft 436 kts 101°
2026-04-29 13:30 51.94525 7.23937 33494 ft 436 kts 101°
2026-04-29 13:30 51.93642 7.28639 33924 ft 435 kts 101°
2026-04-29 13:30 51.92778 7.33243 34413 ft 432 kts 101°
2026-04-29 13:31 51.91900 7.37921 34858 ft 431 kts 101°
2026-04-29 13:31 51.91039 7.42504 35150 ft 430 kts 100°
2026-04-29 13:31 51.90173 7.47116 35326 ft 433 kts 101°
2026-04-29 13:31 51.89314 7.51681 35335 ft 435 kts 100°
2026-04-29 13:32 51.87549 7.61027 35340 ft 436 kts 100°
2026-04-29 13:32 51.85818 7.70152 35359 ft 436 kts 101°
2026-04-29 13:33 51.84431 7.79491 35362 ft 432 kts 96°
2026-04-29 13:33 51.83231 7.88901 35359 ft 431 kts 96°
2026-04-29 13:34 51.81994 7.98334 35354 ft 431 kts 96°
2026-04-29 13:34 51.80738 8.07753 35350 ft 433 kts 96°
2026-04-29 13:35 51.79444 8.17342 35346 ft 442 kts 96°
2026-04-29 13:35 51.78113 8.27113 35348 ft 452 kts 96°
2026-04-29 13:36 51.76742 8.37085 35346 ft 459 kts 96°
2026-04-29 13:36 51.64410 9.23800 35350 ft 465 kts 97°
2026-04-29 13:37 51.60312 9.51586 35400 ft 470 kts 97°
2026-04-29 13:37 51.49675 10.21448 35379 ft 475 kts 97°
2026-04-29 13:38 51.48078 10.31687 35369 ft 478 kts 97°
2026-04-29 13:38 51.43329 10.61726 35387 ft 478 kts 97°
2026-04-29 13:39 51.41679 10.72053 35366 ft 480 kts 98°
2026-04-29 13:39 51.40029 10.82310 35371 ft 480 kts 98°
2026-04-29 13:40 51.38355 10.92654 35376 ft 481 kts 98°
2026-04-29 13:40 51.36680 11.02940 35367 ft 482 kts 98°
2026-04-29 13:41 51.34975 11.13341 35366 ft 483 kts 98°
2026-04-29 13:41 51.33261 11.23738 35372 ft 484 kts 98°
2026-04-29 13:42 51.31546 11.34072 35382 ft 484 kts 98°
2026-04-29 13:42 51.29815 11.44443 35378 ft 486 kts 99°
2026-04-29 13:43 51.28078 11.54779 35375 ft 480 kts 99°
2026-04-29 13:43 51.27217 11.59862 35380 ft 468 kts 99°
2026-04-29 13:43 51.26369 11.64866 35381 ft 460 kts 99°
2026-04-29 13:44 51.22193 11.89380 35413 ft 462 kts 99°
2026-04-29 13:44 51.18583 12.10284 35390 ft 469 kts 100°
2026-04-29 13:45 51.16886 12.20003 35392 ft 468 kts 100°
2026-04-29 13:45 51.15174 12.29770 35394 ft 470 kts 99°
2026-04-29 13:46 51.13408 12.39786 35396 ft 468 kts 100°
2026-04-29 13:46 51.11652 12.49695 35383 ft 471 kts 100°
2026-04-29 13:47 51.09869 12.59693 35381 ft 470 kts 100°
2026-04-29 13:47 51.08066 12.69754 35399 ft 471 kts 101°
2026-04-29 13:48 51.06260 12.79779 35381 ft 474 kts 101°
2026-04-29 13:48 51.04451 12.89757 35378 ft 475 kts 101°
2026-04-29 13:49 51.02640 12.99696 35374 ft 475 kts 101°
2026-04-29 13:49 51.00797 13.09750 35365 ft 475 kts 101°
2026-04-29 13:50 50.98946 13.19802 35368 ft 477 kts 101°
2026-04-29 13:50 50.97081 13.29864 35360 ft 476 kts 101°
2026-04-29 13:51 50.95201 13.39965 35357 ft 479 kts 101°
2026-04-29 13:51 50.93326 13.49975 35362 ft 478 kts 101°
2026-04-29 13:52 50.91431 13.60043 35349 ft 481 kts 102°
2026-04-29 13:52 50.89548 13.69991 35349 ft 480 kts 102°
2026-04-29 13:53 50.87659 13.79918 35335 ft 482 kts 102°
2026-04-29 13:53 50.85728 13.90012 35340 ft 482 kts 102°
2026-04-29 13:54 50.83143 13.99831 35341 ft 491 kts 117°
2026-04-29 13:54 50.79083 14.08411 35351 ft 499 kts 125°
2026-04-29 13:55 50.74672 14.16896 35355 ft 500 kts 126°
2026-04-29 13:55 50.70262 14.25238 35356 ft 500 kts 126°
2026-04-29 13:56 50.66563 14.32174 35357 ft 500 kts 127°
2026-04-29 13:56 50.61353 14.41873 35345 ft 503 kts 127°
2026-04-29 13:57 50.57614 14.48795 35348 ft 502 kts 127°
2026-04-29 13:57 50.53075 14.57166 35335 ft 504 kts 127°
2026-04-29 13:58 50.47792 14.66869 35340 ft 504 kts 128°
2026-04-29 13:58 50.44011 14.73788 35349 ft 506 kts 128°
2026-04-29 13:59 50.38694 14.83483 35349 ft 505 kts 128°
2026-04-29 13:59 50.34095 14.91839 35343 ft 506 kts 128°
2026-04-29 14:00 50.29534 15.00100 35335 ft 505 kts 128°
2026-04-29 14:00 50.24974 15.08332 35336 ft 507 kts 128°
2026-04-29 14:01 50.20370 15.16617 35336 ft 508 kts 128°
2026-04-29 14:01 50.15710 15.24976 35337 ft 509 kts 129°
2026-04-29 14:02 50.11069 15.33274 35329 ft 510 kts 129°
2026-04-29 14:02 50.06634 15.41845 35342 ft 511 kts 125°
2026-04-29 14:03 50.02297 15.50516 35351 ft 510 kts 125°
2026-04-29 14:03 49.97960 15.59159 35357 ft 511 kts 125°
2026-04-29 14:04 49.93560 15.67900 35346 ft 511 kts 126°
2026-04-29 14:04 49.89186 15.76561 35319 ft 513 kts 126°
2026-04-29 14:05 49.84757 15.85301 35340 ft 517 kts 126°
2026-04-29 14:05 49.80329 15.94009 35310 ft 516 kts 126°
2026-04-29 14:06 49.75899 16.02695 35294 ft 517 kts 126°
2026-04-29 14:06 49.71518 16.11256 35263 ft 518 kts 126°
2026-04-29 14:07 49.67065 16.19928 35260 ft 517 kts 127°
2026-04-29 14:07 49.62631 16.28533 35250 ft 516 kts 127°
2026-04-29 14:08 49.58175 16.37156 35458 ft 520 kts 127°
2026-04-29 14:08 49.55982 16.41389 35211 ft 519 kts 127°
2026-04-29 14:08 49.53738 16.45713 35334 ft 519 kts 127°
2026-04-29 14:09 49.50019 16.52862 35267 ft 518 kts 127°
2026-04-29 14:09 49.44741 16.62980 35278 ft 521 kts 127°
2026-04-29 14:10 49.40271 16.71516 35262 ft 522 kts 128°
2026-04-29 14:10 49.35754 16.80114 35269 ft 523 kts 128°
2026-04-29 14:11 49.31963 16.87310 35284 ft 523 kts 128°
2026-04-29 14:11 49.26716 16.97236 35281 ft 526 kts 128°
2026-04-29 14:12 49.22142 17.05859 35288 ft 524 kts 128°
2026-04-29 14:12 49.17559 17.14469 35292 ft 525 kts 128°
2026-04-29 14:13 49.12999 17.23011 35292 ft 526 kts 128°
2026-04-29 14:13 49.08404 17.31589 35276 ft 526 kts 128°
2026-04-29 14:14 49.04548 17.38767 35284 ft 526 kts 129°
2026-04-29 14:14 48.99912 17.47371 35268 ft 526 kts 129°
2026-04-29 14:15 48.94489 17.57399 35295 ft 528 kts 129°
2026-04-29 14:15 48.89867 17.65917 35275 ft 528 kts 130°
2026-04-29 14:16 48.85245 17.74406 35247 ft 530 kts 130°
2026-04-29 14:16 48.80581 17.82946 35240 ft 529 kts 130°
2026-04-29 14:17 48.76675 17.90076 35235 ft 531 kts 130°
2026-04-29 14:17 48.71189 18.00060 35221 ft 530 kts 130°
2026-04-29 14:18 48.66511 18.08544 35235 ft 530 kts 130°
2026-04-29 14:18 48.61801 18.17056 35231 ft 531 kts 130°
2026-04-29 14:19 48.57862 18.24156 35225 ft 530 kts 130°
2026-04-29 14:19 48.52351 18.34057 35201 ft 532 kts 130°
2026-04-29 14:20 48.48384 18.41161 35219 ft 532 kts 130°
2026-04-29 14:20 48.43676 18.49568 35191 ft 530 kts 131°
2026-04-29 14:21 48.38141 18.59417 35188 ft 532 kts 131°
2026-04-29 14:21 48.33497 18.67652 35199 ft 530 kts 131°
2026-04-29 14:22 48.29505 18.74711 35182 ft 534 kts 132°
2026-04-29 14:22 48.24736 18.83120 35207 ft 532 kts 131°
2026-04-29 14:23 48.19987 18.91467 35207 ft 532 kts 131°
2026-04-29 14:23 48.14402 19.01249 35205 ft 533 kts 132°
2026-04-29 14:24 48.10426 19.08192 35165 ft 532 kts 132°
2026-04-29 14:24 48.05672 19.16470 35200 ft 533 kts 132°
2026-04-29 14:25 48.00861 19.24821 35190 ft 534 kts 132°
2026-04-29 14:25 47.95282 19.34471 35189 ft 533 kts 132°
2026-04-29 14:26 47.91290 19.41354 35192 ft 534 kts 132°
2026-04-29 14:26 47.85643 19.51063 35201 ft 534 kts 132°
2026-04-29 14:27 47.80819 19.59327 35187 ft 534 kts 132°
2026-04-29 14:28 47.74403 19.70280 35196 ft 534 kts 133°
2026-04-29 14:28 47.69575 19.78491 35196 ft 535 kts 133°
2026-04-29 14:29 47.64680 19.86792 35206 ft 533 kts 133°
2026-04-29 14:29 47.62302 19.90814 35037 ft 533 kts 133°
2026-04-29 14:29 47.59046 19.96312 35187 ft 537 kts 133°
2026-04-29 14:30 47.54120 20.04608 35213 ft 536 kts 133°
2026-04-29 14:30 47.49268 20.12909 35215 ft 537 kts 128°
2026-04-29 14:31 47.45868 20.20535 35218 ft 537 kts 122°
2026-04-29 14:31 47.41903 20.29851 35210 ft 540 kts 123°
2026-04-29 14:32 47.37928 20.39106 35224 ft 538 kts 123°
2026-04-29 14:32 47.33933 20.48340 35214 ft 538 kts 123°
2026-04-29 14:33 47.29898 20.57616 35229 ft 539 kts 123°
2026-04-29 14:33 47.25867 20.66839 35218 ft 540 kts 124°
2026-04-29 14:34 47.21817 20.76069 35207 ft 538 kts 124°
2026-04-29 14:34 47.17771 20.85255 35214 ft 539 kts 124°
2026-04-29 14:35 47.13728 20.94403 35207 ft 539 kts 124°
2026-04-29 14:35 47.09666 21.03561 35213 ft 540 kts 124°
2026-04-29 14:36 47.05576 21.12751 35192 ft 542 kts 124°
2026-04-29 14:36 47.00838 21.23359 35189 ft 542 kts 124°
2026-04-29 14:37 46.97417 21.30993 35181 ft 542 kts 125°
2026-04-29 14:37 46.93314 21.40122 35174 ft 542 kts 125°
2026-04-29 14:37 46.90563 21.46224 35325 ft 542 kts 125°
2026-04-29 14:38 46.89213 21.49215 35218 ft 544 kts 124°
2026-04-29 14:38 46.85037 21.58445 35181 ft 543 kts 125°
2026-04-29 14:39 46.80891 21.67577 35169 ft 542 kts 126°
2026-04-29 14:39 46.76678 21.76647 35162 ft 544 kts 126°
2026-04-29 14:40 46.72370 21.85844 35555 ft 548 kts 126°
2026-04-29 14:40 46.70237 21.90392 36021 ft 542 kts 126°
2026-04-29 14:40 46.68126 21.94886 36472 ft 536 kts 126°
2026-04-29 14:40 46.65996 21.99412 36746 ft 536 kts 126°
2026-04-29 14:41 46.63885 22.03891 36910 ft 537 kts 126°
2026-04-29 14:41 46.61785 22.08341 37077 ft 538 kts 126°
2026-04-29 14:41 46.59689 22.12774 37165 ft 539 kts 125°
2026-04-29 14:42 46.55464 22.21694 37128 ft 536 kts 126°
2026-04-29 14:42 46.51242 22.30577 37126 ft 539 kts 126°
2026-04-29 14:43 46.47031 22.39411 37122 ft 536 kts 126°
2026-04-29 14:43 46.42818 22.48222 37153 ft 538 kts 126°
2026-04-29 14:44 46.38584 22.57049 37137 ft 538 kts 126°
2026-04-29 14:44 46.34330 22.65887 37138 ft 538 kts 126°
2026-04-29 14:45 46.30065 22.74725 37110 ft 538 kts 127°
2026-04-29 14:45 46.25840 22.83449 37128 ft 538 kts 127°
2026-04-29 14:46 46.21579 22.92221 37101 ft 539 kts 126°
2026-04-29 14:46 46.17336 23.00928 37105 ft 538 kts 126°
2026-04-29 14:47 46.13087 23.09622 37096 ft 537 kts 126°
2026-04-29 14:47 46.08809 23.18346 37111 ft 539 kts 127°
2026-04-29 14:48 46.04500 23.27109 37098 ft 537 kts 126°
2026-04-29 14:48 46.00189 23.35846 37104 ft 537 kts 127°
2026-04-29 14:49 45.95880 23.44554 37118 ft 538 kts 127°
2026-04-29 14:49 45.91579 23.53218 37109 ft 536 kts 127°
2026-04-29 14:50 45.87290 23.61831 37114 ft 538 kts 127°
2026-04-29 14:50 45.82980 23.70460 37097 ft 535 kts 128°
2026-04-29 14:51 45.78724 23.78956 37100 ft 537 kts 127°
2026-04-29 14:51 45.74403 23.87555 37117 ft 536 kts 128°
2026-04-29 14:52 45.70068 23.96155 37145 ft 538 kts 128°
2026-04-29 14:52 45.65787 24.04623 37113 ft 536 kts 128°
2026-04-29 14:53 45.61473 24.13132 37124 ft 537 kts 128°
2026-04-29 14:53 45.57162 24.21609 37116 ft 535 kts 128°
2026-04-29 14:54 45.52838 24.30085 37108 ft 536 kts 128°
2026-04-29 14:54 45.48467 24.38627 37097 ft 538 kts 128°
2026-04-29 14:54 45.46289 24.42874 36833 ft 539 kts 128°
2026-04-29 14:55 45.44076 24.47184 37106 ft 537 kts 128°
2026-04-29 14:55 45.41890 24.51434 36916 ft 535 kts 128°
2026-04-29 14:55 45.39705 24.55675 37280 ft 536 kts 128°
2026-04-29 14:55 45.37499 24.59951 37145 ft 540 kts 128°
2026-04-29 14:56 45.35294 24.64219 36911 ft 535 kts 128°
2026-04-29 14:56 45.33109 24.68443 37078 ft 535 kts 129°
2026-04-29 14:56 45.30897 24.72712 37073 ft 538 kts 129°
2026-04-29 14:57 45.26472 24.81232 37093 ft 536 kts 129°
2026-04-29 14:57 45.22061 24.89698 37108 ft 538 kts 129°
2026-04-29 14:58 45.17625 24.98189 37140 ft 537 kts 129°
2026-04-29 14:58 45.13189 25.06654 37129 ft 538 kts 129°
2026-04-29 14:59 45.08766 25.15070 37126 ft 537 kts 128°
2026-04-29 14:59 45.04325 25.23495 37146 ft 537 kts 129°
2026-04-29 15:00 44.99858 25.31930 37155 ft 536 kts 130°
2026-04-29 15:00 44.95137 25.40014 37163 ft 538 kts 132°
2026-04-29 15:01 44.90352 25.48060 37145 ft 536 kts 132°
2026-04-29 15:01 44.85574 25.56069 37156 ft 539 kts 132°
2026-04-29 15:02 44.80827 25.64003 37164 ft 537 kts 132°
2026-04-29 15:02 44.76064 25.71942 37151 ft 536 kts 133°
2026-04-29 15:03 44.71308 25.79847 37139 ft 536 kts 133°
2026-04-29 15:03 44.66509 25.87800 37169 ft 536 kts 133°
2026-04-29 15:04 44.61721 25.95715 37157 ft 535 kts 133°
2026-04-29 15:04 44.56965 26.03554 37142 ft 536 kts 133°
2026-04-29 15:05 44.52208 26.11373 37148 ft 536 kts 133°
2026-04-29 15:05 44.47539 26.19027 37147 ft 535 kts 133°
2026-04-29 15:06 44.42793 26.26783 37130 ft 537 kts 133°
2026-04-29 15:06 44.38116 26.34410 37137 ft 536 kts 133°
2026-04-29 15:07 44.33330 26.42191 37142 ft 537 kts 133°
2026-04-29 15:07 44.28634 26.49807 37137 ft 537 kts 133°
2026-04-29 15:08 44.23864 26.57521 37116 ft 536 kts 133°
2026-04-29 15:08 44.19165 26.65098 37110 ft 536 kts 134°
2026-04-29 15:09 44.14391 26.72776 37097 ft 536 kts 134°
2026-04-29 15:09 44.09509 26.80607 37093 ft 540 kts 134°
2026-04-29 15:10 44.04690 26.88580 37089 ft 549 kts 131°
2026-04-29 15:10 43.99854 26.96862 37075 ft 556 kts 132°
2026-04-29 15:11 43.94984 27.05162 37095 ft 561 kts 131°
2026-04-29 15:11 43.90027 27.13574 37106 ft 565 kts 131°
2026-04-29 15:12 43.85132 27.21850 37085 ft 564 kts 131°
2026-04-29 15:12 43.80189 27.30178 37097 ft 565 kts 131°
2026-04-29 15:13 43.75226 27.38514 37100 ft 564 kts 131°
2026-04-29 15:13 43.70379 27.46631 37123 ft 565 kts 131°
2026-04-29 15:14 43.65467 27.54832 37124 ft 564 kts 131°
2026-04-29 15:14 43.60690 27.62784 37129 ft 564 kts 131°
2026-04-29 15:15 43.55619 27.71201 37123 ft 565 kts 133°
2026-04-29 15:15 43.50670 27.79393 37126 ft 565 kts 133°
2026-04-29 15:16 43.45661 27.87661 37130 ft 564 kts 132°
2026-04-29 15:16 43.40760 27.95728 37139 ft 562 kts 132°
2026-04-29 15:17 43.36057 28.03448 37141 ft 562 kts 133°
2026-04-29 15:17 43.31720 28.10548 37146 ft 563 kts 132°
2026-04-29 15:18 43.27513 28.17419 37154 ft 564 kts 132°
2026-04-29 15:18 43.23060 28.24676 37157 ft 563 kts 132°
2026-04-29 15:19 43.18853 28.31515 37164 ft 561 kts 133°
2026-04-29 15:20 43.09872 28.46057 37163 ft 561 kts 132°
2026-04-29 15:20 43.04828 28.54195 37175 ft 560 kts 132°
2026-04-29 15:21 43.00392 28.61333 37166 ft 559 kts 132°
2026-04-29 15:21 42.96811 28.67081 37156 ft 560 kts 133°
2026-04-29 15:22 42.94561 28.70688 37137 ft 560 kts 134°
2026-04-29 15:22 42.88848 28.79825 37167 ft 563 kts 134°
2026-04-29 15:23 42.83753 28.87948 37194 ft 564 kts 133°
2026-04-29 15:23 42.78698 28.95988 37196 ft 558 kts 133°
2026-04-29 15:24 42.73650 29.03996 37157 ft 555 kts 133°
2026-04-29 15:24 42.68628 29.11936 37153 ft 557 kts 133°
2026-04-29 15:25 42.63606 29.19858 37161 ft 557 kts 133°
2026-04-29 15:25 42.58551 29.27809 37164 ft 555 kts 133°
2026-04-29 15:26 42.53511 29.35716 37162 ft 555 kts 133°
2026-04-29 15:26 42.48483 29.43584 37162 ft 554 kts 133°
2026-04-29 15:27 42.43464 29.51415 37161 ft 555 kts 133°
2026-04-29 15:27 42.38452 29.59362 37161 ft 556 kts 128°
2026-04-29 15:28 42.34689 29.68434 37139 ft 558 kts 111°
2026-04-29 15:28 42.32200 29.78299 37150 ft 558 kts 108°
2026-04-29 15:29 42.29750 29.88207 37144 ft 558 kts 109°
2026-04-29 15:30 42.24768 30.07921 37157 ft 557 kts 109°
2026-04-29 15:30 42.22227 30.17839 37159 ft 558 kts 109°
2026-04-29 15:31 42.19696 30.27651 37158 ft 557 kts 109°
2026-04-29 15:31 42.17144 30.37494 37160 ft 558 kts 109°
2026-04-29 15:32 42.14575 30.47350 37175 ft 557 kts 109°
2026-04-29 15:32 42.12019 30.57113 37176 ft 557 kts 109°
2026-04-29 15:33 42.09439 30.66927 37166 ft 556 kts 110°
2026-04-29 15:33 42.06864 30.76682 37160 ft 557 kts 110°
2026-04-29 15:34 42.04283 30.86420 37155 ft 557 kts 110°
2026-04-29 15:34 42.01665 30.96256 37153 ft 557 kts 110°
2026-04-29 15:35 41.99066 31.05986 37154 ft 548 kts 110°
2026-04-29 15:35 41.96527 31.15476 37154 ft 543 kts 110°
2026-04-29 15:36 41.93954 31.25057 37156 ft 550 kts 110°
2026-04-29 15:36 41.91338 31.34756 37156 ft 554 kts 110°
2026-04-29 15:37 41.88714 31.44449 37143 ft 557 kts 109°
2026-04-29 15:37 41.86076 31.54154 37137 ft 556 kts 110°
2026-04-29 15:38 41.83433 31.63840 37135 ft 556 kts 110°
2026-04-29 15:38 41.80763 31.73555 37122 ft 556 kts 110°
2026-04-29 15:39 41.78079 31.83280 37125 ft 556 kts 110°
2026-04-29 15:39 41.75400 31.92958 37128 ft 557 kts 110°
2026-04-29 15:40 41.72712 32.02632 37123 ft 556 kts 111°
2026-04-29 15:40 41.69998 32.12364 37129 ft 556 kts 110°
2026-04-29 15:41 41.67302 32.22003 37122 ft 556 kts 110°
2026-04-29 15:41 41.64610 32.31637 37122 ft 555 kts 110°
2026-04-29 15:42 41.61897 32.41273 37122 ft 555 kts 110°
2026-04-29 15:42 41.59153 32.50963 37118 ft 555 kts 110°
2026-04-29 15:43 41.56433 32.60541 37101 ft 554 kts 110°
2026-04-29 15:43 41.53698 32.70143 37106 ft 555 kts 111°
2026-04-29 15:44 41.50954 32.79740 37106 ft 555 kts 111°
2026-04-29 15:44 41.48204 32.89319 37101 ft 554 kts 111°
2026-04-29 15:45 41.45367 32.98935 37104 ft 553 kts 116°
2026-04-29 15:45 41.41756 33.07950 37101 ft 553 kts 120°
2026-04-29 15:46 41.38038 33.16887 37104 ft 552 kts 120°
2026-04-29 15:46 41.34312 33.25837 37107 ft 553 kts 119°
2026-04-29 15:47 41.30684 33.34843 37085 ft 553 kts 119°
2026-04-29 15:47 41.27073 33.43889 37102 ft 552 kts 118°
2026-04-29 15:48 41.23533 33.52873 37101 ft 551 kts 118°
2026-04-29 15:48 41.19974 33.61868 37114 ft 551 kts 118°
2026-04-29 15:49 41.16401 33.70860 37081 ft 549 kts 119°
2026-04-29 15:49 41.12838 33.79795 37095 ft 550 kts 119°
2026-04-29 15:50 41.09241 33.88788 37076 ft 550 kts 119°
2026-04-29 15:50 41.05668 33.97691 37072 ft 548 kts 119°
2026-04-29 15:51 41.02094 34.06568 37070 ft 549 kts 119°
2026-04-29 15:51 40.98490 34.15494 37091 ft 550 kts 119°
2026-04-29 15:52 40.94875 34.24417 37090 ft 549 kts 119°
2026-04-29 15:52 40.91274 34.33282 37081 ft 549 kts 119°
2026-04-29 15:53 40.87669 34.42130 37085 ft 549 kts 119°
2026-04-29 15:53 40.84050 34.50985 37086 ft 550 kts 119°
2026-04-29 15:54 40.80412 34.59863 37087 ft 550 kts 119°
2026-04-29 15:54 40.76785 34.68684 37079 ft 549 kts 119°
2026-04-29 15:55 40.73126 34.77490 37076 ft 548 kts 120°
2026-04-29 15:55 40.69354 34.86244 37069 ft 549 kts 121°
2026-04-29 15:56 40.65572 34.94997 37075 ft 548 kts 121°
2026-04-29 15:56 40.61797 35.03716 37068 ft 549 kts 120°
2026-04-29 15:57 40.58034 35.12391 37080 ft 548 kts 121°
2026-04-29 15:57 40.54274 35.21034 37088 ft 548 kts 121°
2026-04-29 15:58 40.50487 35.29716 37095 ft 546 kts 120°
2026-04-29 15:58 40.46709 35.38354 37086 ft 548 kts 121°
2026-04-29 15:59 40.42938 35.46955 37086 ft 546 kts 120°
2026-04-29 15:59 40.39147 35.55575 37085 ft 546 kts 120°
2026-04-29 16:00 40.35376 35.64126 37086 ft 545 kts 120°
2026-04-29 16:00 40.31572 35.72730 37097 ft 545 kts 121°
2026-04-29 16:01 40.27768 35.81309 37092 ft 544 kts 121°
2026-04-29 16:01 40.23968 35.89853 37077 ft 545 kts 121°
2026-04-29 16:02 40.20150 35.98416 37066 ft 543 kts 121°
2026-04-29 16:02 40.16354 36.06905 37079 ft 544 kts 121°
2026-04-29 16:03 40.12541 36.15408 37072 ft 544 kts 121°
2026-04-29 16:03 40.08708 36.23933 37074 ft 541 kts 121°
2026-04-29 16:04 40.04900 36.32380 37085 ft 541 kts 121°
2026-04-29 16:04 40.01094 36.40797 37079 ft 539 kts 121°
2026-04-29 16:05 39.97271 36.49233 37097 ft 539 kts 121°
2026-04-29 16:05 39.93457 36.57622 37096 ft 534 kts 121°
2026-04-29 16:05 39.91613 36.61673 37098 ft 520 kts 121°
2026-04-29 16:06 39.89782 36.65689 37094 ft 509 kts 122°
2026-04-29 16:06 39.86165 36.73603 37108 ft 511 kts 122°
2026-04-29 16:07 39.82518 36.81564 37110 ft 510 kts 122°
2026-04-29 16:07 39.78903 36.89435 37105 ft 510 kts 122°
2026-04-29 16:08 39.75337 36.97377 37106 ft 508 kts 121°
2026-04-29 16:08 39.71807 37.05269 37111 ft 509 kts 121°
2026-04-29 16:09 39.68245 37.13208 37116 ft 508 kts 121°
2026-04-29 16:09 39.64702 37.21079 37118 ft 508 kts 121°
2026-04-29 16:10 39.62313 37.26371 37127 ft 508 kts 121°